Time,TemperatureF,DewpointF,PressureIn,WindDirection,WindDirectionDegrees,WindSpeedMPH,WindSpeedGustMPH,Humidity,HourlyPrecipIn,Conditions,Clouds,dailyrainin,SoftwareType,DateUTC
2013-04-17 00:02:00,34.4,30.4,30.29,NNE,24,12.0,13.0,85,0.00,,,0.00,Wunderground v.1.15,2013-04-17 05:02:00,
2013-04-17 00:07:00,34.4,30.4,30.29,NNE,24,12.0,13.0,85,0.00,,,0.00,Wunderground v.1.15,2013-04-17 05:07:00,
2013-04-17 00:12:00,34.4,30.6,30.28,NNE,24,12.0,12.0,86,0.00,,,0.00,Wunderground v.1.15,2013-04-17 05:12:00,
2013-04-17 00:18:00,34.4,30.6,30.28,NNE,28,15.0,15.0,86,0.00,,,0.00,Wunderground v.1.15,2013-04-17 05:18:00,
2013-04-17 00:24:00,34.4,30.6,30.29,NNE,32,10.0,15.0,86,0.00,,,0.00,Wunderground v.1.15,2013-04-17 05:24:00,
2013-04-17 00:30:00,34.4,30.6,30.28,NNE,17,13.0,15.0,86,0.00,,,0.00,Wunderground v.1.15,2013-04-17 05:30:00,
2013-04-17 00:35:00,34.4,30.6,30.28,NE,42,12.0,12.0,86,0.00,,,0.00,Wunderground v.1.15,2013-04-17 05:35:00,
2013-04-17 00:41:00,34.6,30.8,30.29,NE,38,12.0,12.0,86,0.00,,,0.00,Wunderground v.1.15,2013-04-17 05:41:00,
2013-04-17 00:47:00,34.6,30.6,30.29,NNE,27,10.0,13.0,85,0.00,,,0.00,Wunderground v.1.15,2013-04-17 05:47:00,
2013-04-17 00:53:00,34.6,30.6,30.29,NE,40,10.0,14.0,85,0.00,,,0.00,Wunderground v.1.15,2013-04-17 05:53:00,
2013-04-17 00:59:00,34.7,30.7,30.29,NE,51,13.0,16.0,85,0.00,,,0.00,Wunderground v.1.15,2013-04-17 05:59:00,
2013-04-17 01:04:00,34.8,30.8,30.29,NNE,32,10.0,15.0,85,0.00,,,0.00,Wunderground v.1.15,2013-04-17 06:04:00,
2013-04-17 01:10:00,34.8,30.8,30.29,NE,34,9.0,15.0,85,0.00,,,0.00,Wunderground v.1.15,2013-04-17 06:10:00,
2013-04-17 01:16:00,34.7,30.7,30.29,NE,42,13.0,13.0,85,0.00,,,0.00,Wunderground v.1.15,2013-04-17 06:16:00,
2013-04-17 01:22:00,34.8,30.8,30.29,NE,39,10.0,13.0,85,0.00,,,0.00,Wunderground v.1.15,2013-04-17 06:22:00,
2013-04-17 01:27:00,34.8,30.8,30.29,NNE,31,10.0,13.0,85,0.00,,,0.00,Wunderground v.1.15,2013-04-17 06:27:00,
2013-04-17 01:33:00,34.8,30.8,30.29,NNE,28,14.0,14.0,85,0.00,,,0.00,Wunderground v.1.15,2013-04-17 06:33:00,
2013-04-17 01:38:00,34.8,30.8,30.29,NE,34,9.0,14.0,85,0.00,,,0.00,Wunderground v.1.15,2013-04-17 06:38:00,
2013-04-17 01:44:00,34.8,30.8,30.29,NE,36,13.0,14.0,85,0.00,,,0.00,Wunderground v.1.15,2013-04-17 06:44:00,
2013-04-17 01:49:00,34.9,30.8,30.29,NNE,30,15.0,15.0,85,0.00,,,0.00,Wunderground v.1.15,2013-04-17 06:49:00,
2013-04-17 01:55:00,35.0,30.9,30.28,NE,42,13.0,14.0,85,0.00,,,0.00,Wunderground v.1.15,2013-04-17 06:55:00,
2013-04-17 02:00:00,35.0,30.9,30.28,NE,43,11.0,14.0,85,0.00,,,0.00,Wunderground v.1.15,2013-04-17 07:00:00,
2013-04-17 02:05:00,35.0,30.7,30.28,NE,37,10.0,16.0,84,0.00,,,0.00,Wunderground v.1.15,2013-04-17 07:05:00,
2013-04-17 02:10:00,35.0,30.7,30.28,NNE,32,12.0,16.0,84,0.00,,,0.00,Wunderground v.1.15,2013-04-17 07:10:00,
2013-04-17 02:15:00,35.1,30.8,30.27,NNE,31,11.0,15.0,84,0.00,,,0.00,Wunderground v.1.15,2013-04-17 07:15:00,
2013-04-17 02:20:00,35.1,30.8,30.27,NNE,28,11.0,16.0,84,0.00,,,0.00,Wunderground v.1.15,2013-04-17 07:20:00,
2013-04-17 02:25:00,35.1,30.8,30.27,NE,44,11.0,14.0,84,0.00,,,0.00,Wunderground v.1.15,2013-04-17 07:25:00,
2013-04-17 02:30:00,35.2,30.9,30.28,NNE,32,9.0,16.0,84,0.00,,,0.00,Wunderground v.1.15,2013-04-17 07:30:00,
2013-04-17 02:35:00,35.1,30.8,30.28,NE,36,10.0,15.0,84,0.00,,,0.00,Wunderground v.1.15,2013-04-17 07:35:00,
2013-04-17 02:40:00,35.2,30.9,30.28,NE,40,10.0,15.0,84,0.00,,,0.00,Wunderground v.1.15,2013-04-17 07:40:00,
2013-04-17 02:45:00,35.2,30.6,30.28,NNE,30,10.0,14.0,83,0.00,,,0.00,Wunderground v.1.15,2013-04-17 07:45:00,
2013-04-17 02:50:00,35.2,30.6,30.28,NNE,26,11.0,14.0,83,0.00,,,0.00,Wunderground v.1.15,2013-04-17 07:50:00,
2013-04-17 02:55:00,35.2,30.9,30.28,NNE,21,11.0,14.0,84,0.00,,,0.00,Wunderground v.1.15,2013-04-17 07:55:00,
2013-04-17 03:00:00,35.2,30.6,30.28,NNE,20,13.0,15.0,83,0.00,,,0.00,Wunderground v.1.15,2013-04-17 08:00:00,
2013-04-17 03:05:00,35.2,30.6,30.28,NNE,28,13.0,16.0,83,0.00,,,0.00,Wunderground v.1.15,2013-04-17 08:05:00,
2013-04-17 03:10:00,35.2,30.9,30.27,NNE,21,13.0,17.0,84,0.00,,,0.00,Wunderground v.1.15,2013-04-17 08:10:00,
2013-04-17 03:15:00,35.1,30.8,30.26,NE,51,11.0,15.0,84,0.00,,,0.00,Wunderground v.1.15,2013-04-17 08:15:00,
2013-04-17 03:20:00,35.2,30.9,30.26,NE,53,11.0,15.0,84,0.00,,,0.00,Wunderground v.1.15,2013-04-17 08:20:00,
2013-04-17 03:25:00,35.2,30.6,30.25,NNE,23,15.0,16.0,83,0.00,,,0.00,Wunderground v.1.15,2013-04-17 08:25:00,
2013-04-17 03:30:00,35.2,30.6,30.25,NE,35,17.0,17.0,83,0.00,,,0.00,Wunderground v.1.15,2013-04-17 08:30:00,
2013-04-17 03:35:00,35.3,30.4,30.24,NNE,32,18.0,19.0,82,0.00,,,0.00,Wunderground v.1.15,2013-04-17 08:35:00,
2013-04-17 03:40:00,35.3,30.4,30.23,NE,47,14.0,20.0,82,0.00,,,0.00,Wunderground v.1.15,2013-04-17 08:40:00,
2013-04-17 03:45:00,35.3,30.4,30.22,NE,34,17.0,18.0,82,0.00,,,0.00,Wunderground v.1.15,2013-04-17 08:45:00,
2013-04-17 03:50:00,35.2,30.0,30.21,NE,36,16.0,25.0,81,0.00,,,0.00,Wunderground v.1.15,2013-04-17 08:50:00,
2013-04-17 03:56:00,35.2,30.0,30.20,NE,46,16.0,19.0,81,0.00,,,0.00,Wunderground v.1.15,2013-04-17 08:56:00,
2013-04-17 04:01:00,35.2,30.0,30.20,NE,44,19.0,22.0,81,0.00,,,0.00,Wunderground v.1.15,2013-04-17 09:01:00,
2013-04-17 04:06:00,35.1,29.9,30.19,NE,35,17.0,21.0,81,0.00,,,0.00,Wunderground v.1.15,2013-04-17 09:06:00,
2013-04-17 04:11:00,35.1,29.9,30.19,NE,49,18.0,22.0,81,0.00,,,0.00,Wunderground v.1.15,2013-04-17 09:11:00,
2013-04-17 04:16:00,35.2,30.0,30.19,NE,40,14.0,19.0,81,0.00,,,0.00,Wunderground v.1.15,2013-04-17 09:16:00,
2013-04-17 04:20:00,35.2,30.0,30.18,NE,37,18.0,21.0,81,0.00,,,0.00,Wunderground v.1.15,2013-04-17 09:20:00,
2013-04-17 04:25:00,35.1,29.6,30.16,NE,38,17.0,24.0,80,0.00,,,0.00,Wunderground v.1.15,2013-04-17 09:25:00,
2013-04-17 04:30:00,35.1,29.9,30.19,NE,50,10.0,24.0,81,0.00,,,0.00,Wunderground v.1.15,2013-04-17 09:30:00,
2013-04-17 04:35:00,35.2,29.6,30.19,NE,34,11.0,16.0,80,0.00,,,0.00,Wunderground v.1.15,2013-04-17 09:35:00,
2013-04-17 04:41:00,35.3,29.7,30.19,NE,35,11.0,20.0,80,0.00,,,0.00,Wunderground v.1.15,2013-04-17 09:41:00,
2013-04-17 04:46:00,35.3,29.7,30.19,NE,51,11.0,20.0,80,0.00,,,0.00,Wunderground v.1.15,2013-04-17 09:46:00,
2013-04-17 04:51:00,35.2,29.6,30.19,NE,48,15.0,20.0,80,0.00,,,0.00,Wunderground v.1.15,2013-04-17 09:51:00,
2013-04-17 04:56:00,35.2,29.6,30.19,NE,40,14.0,19.0,80,0.00,,,0.00,Wunderground v.1.15,2013-04-17 09:56:00,
2013-04-17 05:01:00,35.2,30.0,30.21,NE,38,12.0,14.0,81,0.00,,,0.00,Wunderground v.1.15,2013-04-17 10:01:00,
2013-04-17 05:06:00,35.2,30.0,30.19,NNE,33,17.0,18.0,81,0.00,,,0.00,Wunderground v.1.15,2013-04-17 10:06:00,
2013-04-17 05:11:00,35.2,30.3,30.22,NNE,31,8.0,13.0,82,0.00,,,0.00,Wunderground v.1.15,2013-04-17 10:11:00,
2013-04-17 05:16:00,35.1,30.2,30.23,NE,41,10.0,13.0,82,0.00,,,0.00,Wunderground v.1.15,2013-04-17 10:16:00,
2013-04-17 05:21:00,35.1,30.2,30.23,NE,36,10.0,10.0,82,0.00,,,0.00,Wunderground v.1.15,2013-04-17 10:21:00,
2013-04-17 05:27:00,35.1,30.2,30.23,NNE,33,8.0,13.0,82,0.00,,,0.00,Wunderground v.1.15,2013-04-17 10:27:00,
2013-04-17 05:32:00,35.0,30.4,30.24,NNE,17,12.0,12.0,83,0.00,,,0.00,Wunderground v.1.15,2013-04-17 10:32:00,
2013-04-17 05:37:00,35.0,30.4,30.24,NNE,24,10.0,12.0,83,0.00,,,0.00,Wunderground v.1.15,2013-04-17 10:37:00,
2013-04-17 05:42:00,34.9,30.3,30.24,NNE,32,12.0,13.0,83,0.00,,,0.00,Wunderground v.1.15,2013-04-17 10:42:00,
2013-04-17 05:47:00,35.0,30.4,30.25,NNE,17,12.0,15.0,83,0.00,,,0.00,Wunderground v.1.15,2013-04-17 10:47:00,
2013-04-17 05:52:00,35.0,30.4,30.24,NNE,27,10.0,12.0,83,0.00,,,0.00,Wunderground v.1.15,2013-04-17 10:52:00,
2013-04-17 05:57:00,34.9,30.3,30.23,NNE,24,10.0,15.0,83,0.00,,,0.00,Wunderground v.1.15,2013-04-17 10:57:00,
2013-04-17 06:02:00,34.9,30.3,30.22,NNE,19,12.0,14.0,83,0.00,,,0.00,Wunderground v.1.15,2013-04-17 11:02:00,
2013-04-17 06:07:00,35.0,30.4,30.20,NNE,26,15.0,17.0,83,0.00,,,0.00,Wunderground v.1.15,2013-04-17 11:07:00,
2013-04-17 06:12:00,35.0,30.7,30.19,NE,35,18.0,18.0,84,0.00,,,0.00,Wunderground v.1.15,2013-04-17 11:12:00,
2013-04-17 06:17:00,35.0,30.4,30.19,NNE,30,12.0,19.0,83,0.00,,,0.00,Wunderground v.1.15,2013-04-17 11:17:00,
2013-04-17 06:22:00,35.0,30.4,30.17,NE,47,15.0,22.0,83,0.00,,,0.00,Wunderground v.1.15,2013-04-17 11:22:00,
2013-04-17 06:27:00,35.2,30.3,30.16,NNE,16,17.0,22.0,82,0.00,,,0.00,Wunderground v.1.15,2013-04-17 11:27:00,
2013-04-17 06:32:00,35.3,30.1,30.16,NE,41,14.0,18.0,81,0.00,,,0.00,Wunderground v.1.15,2013-04-17 11:32:00,
2013-04-17 06:37:00,35.4,30.1,30.16,NE,42,16.0,20.0,81,0.00,,,0.00,Wunderground v.1.15,2013-04-17 11:37:00,
2013-04-17 06:42:00,35.5,30.2,30.15,NE,46,18.0,19.0,81,0.00,,,0.00,Wunderground v.1.15,2013-04-17 11:42:00,
2013-04-17 06:47:00,35.5,30.2,30.14,NE,50,20.0,26.0,81,0.00,,,0.00,Wunderground v.1.15,2013-04-17 11:47:00,
2013-04-17 06:52:00,35.4,30.1,30.16,NE,43,11.0,19.0,81,0.00,,,0.00,Wunderground v.1.15,2013-04-17 11:52:00,
2013-04-17 06:57:00,35.4,30.1,30.17,NE,45,15.0,19.0,81,0.00,,,0.00,Wunderground v.1.15,2013-04-17 11:57:00,
2013-04-17 07:02:00,35.5,29.9,30.17,NE,46,14.0,17.0,80,0.00,,,0.00,Wunderground v.1.15,2013-04-17 12:02:00,
2013-04-17 07:07:00,35.6,30.0,30.17,NE,53,12.0,17.0,80,0.00,,,0.00,Wunderground v.1.15,2013-04-17 12:07:00,
2013-04-17 07:12:00,35.7,30.1,30.18,NNE,30,11.0,16.0,80,0.00,,,0.00,Wunderground v.1.15,2013-04-17 12:12:00,
2013-04-17 07:17:00,35.9,30.0,30.18,NE,49,15.0,20.0,79,0.00,,,0.00,Wunderground v.1.15,2013-04-17 12:17:00,
2013-04-17 07:22:00,36.0,30.1,30.17,NE,39,10.0,17.0,79,0.00,,,0.00,Wunderground v.1.15,2013-04-17 12:22:00,
2013-04-17 07:27:00,35.8,30.5,30.17,ENE,60,14.0,18.0,81,0.00,,,0.00,Wunderground v.1.15,2013-04-17 12:27:00,
2013-04-17 07:32:00,35.5,30.5,30.17,NE,53,12.0,18.0,82,0.00,,,0.00,Wunderground v.1.15,2013-04-17 12:32:00,
2013-04-17 07:37:00,35.2,30.9,30.17,NE,38,13.0,20.0,84,0.00,,,0.00,Wunderground v.1.15,2013-04-17 12:37:00,
2013-04-17 07:42:00,35.1,30.8,30.19,NE,42,11.0,14.0,84,0.00,,,0.00,Wunderground v.1.15,2013-04-17 12:42:00,
2013-04-17 07:47:00,35.1,31.0,30.23,NNE,22,8.0,14.0,85,0.00,,,0.01,Wunderground v.1.15,2013-04-17 12:47:00,
2013-04-17 07:52:00,35.1,31.0,30.24,NNE,19,7.0,9.0,85,0.00,,,0.01,Wunderground v.1.15,2013-04-17 12:52:00,
2013-04-17 07:57:00,35.1,31.0,30.23,NNE,29,6.0,9.0,85,0.00,,,0.01,Wunderground v.1.15,2013-04-17 12:57:00,
2013-04-17 08:02:00,34.8,31.0,30.23,NNE,30,9.0,9.0,86,0.00,,,0.01,Wunderground v.1.15,2013-04-17 13:02:00,
2013-04-17 08:07:00,34.7,30.9,30.23,NNE,30,8.0,10.0,86,0.00,,,0.01,Wunderground v.1.15,2013-04-17 13:07:00,
2013-04-17 08:12:00,34.6,31.1,30.22,NE,46,7.0,8.0,87,0.00,,,0.01,Wunderground v.1.15,2013-04-17 13:12:00,
2013-04-17 08:17:00,34.3,31.1,30.22,NNE,30,6.0,10.0,88,0.00,,,0.01,Wunderground v.1.15,2013-04-17 13:17:00,
2013-04-17 08:22:00,34.0,31.1,30.22,NNE,17,8.0,8.0,89,0.00,,,0.02,Wunderground v.1.15,2013-04-17 13:22:00,
2013-04-17 08:27:00,33.8,31.2,30.22,NNE,28,8.0,9.0,90,0.00,,,0.02,Wunderground v.1.15,2013-04-17 13:27:00,
2013-04-17 08:32:00,33.5,31.2,30.20,NNE,17,9.0,10.0,91,0.00,,,0.02,Wunderground v.1.15,2013-04-17 13:32:00,
2013-04-17 08:37:00,33.4,31.1,30.19,NNE,20,9.0,11.0,91,0.00,,,0.02,Wunderground v.1.15,2013-04-17 13:37:00,
2013-04-17 08:42:00,33.2,31.1,30.18,NNE,19,11.0,12.0,92,0.00,,,0.02,Wunderground v.1.15,2013-04-17 13:42:00,
2013-04-17 08:47:00,33.0,31.2,30.18,NNE,30,12.0,14.0,93,0.00,,,0.02,Wunderground v.1.15,2013-04-17 13:47:00,
2013-04-17 08:52:00,33.0,31.2,30.17,NNE,27,11.0,14.0,93,0.00,,,0.02,Wunderground v.1.15,2013-04-17 13:52:00,
2013-04-17 08:57:00,32.8,31.0,30.16,NNE,22,13.0,16.0,93,0.00,,,0.02,Wunderground v.1.15,2013-04-17 13:57:00,
2013-04-17 09:02:00,32.8,31.3,30.16,NNE,18,15.0,17.0,94,0.00,,,0.02,Wunderground v.1.15,2013-04-17 14:02:00,
2013-04-17 09:07:00,32.8,31.3,30.14,NNE,27,17.0,20.0,94,0.00,,,0.03,Wunderground v.1.15,2013-04-17 14:07:00,
2013-04-17 09:12:00,32.7,31.2,30.14,NNE,26,16.0,18.0,94,0.00,,,0.03,Wunderground v.1.15,2013-04-17 14:12:00,
2013-04-17 09:17:00,32.7,31.2,30.14,NNE,30,14.0,18.0,94,0.07,,,0.04,Wunderground v.1.15,2013-04-17 14:17:00,
2013-04-17 09:22:00,32.8,31.3,30.13,NE,37,13.0,16.0,94,0.10,,,0.05,Wunderground v.1.15,2013-04-17 14:22:00,
2013-04-17 09:27:00,32.9,31.6,30.13,NE,46,16.0,20.0,95,0.10,,,0.05,Wunderground v.1.15,2013-04-17 14:27:00,
2013-04-17 09:32:00,33.0,31.5,30.13,NNE,29,14.0,17.0,94,0.09,,,0.06,Wunderground v.1.15,2013-04-17 14:32:00,
2013-04-17 09:37:00,33.2,31.7,30.13,NE,40,15.0,20.0,94,0.11,,,0.07,Wunderground v.1.15,2013-04-17 14:37:00,
2013-04-17 09:42:00,33.2,31.7,30.13,NNE,33,14.0,17.0,94,0.10,,,0.08,Wunderground v.1.15,2013-04-17 14:42:00,
2013-04-17 09:47:00,33.3,31.8,30.12,NE,38,14.0,19.0,94,0.09,,,0.09,Wunderground v.1.15,2013-04-17 14:47:00,
2013-04-17 09:52:00,33.3,31.8,30.12,NE,46,16.0,17.0,94,0.09,,,0.09,Wunderground v.1.15,2013-04-17 14:52:00,
2013-04-17 09:57:00,33.3,31.8,30.10,NE,52,13.0,20.0,94,0.13,,,0.11,Wunderground v.1.15,2013-04-17 14:57:00,
2013-04-17 10:02:00,33.3,31.8,30.10,NNE,32,17.0,20.0,94,0.11,,,0.11,Wunderground v.1.15,2013-04-17 15:02:00,
2013-04-17 10:07:00,33.4,31.6,30.09,ENE,62,16.0,21.0,93,0.07,,,0.12,Wunderground v.1.15,2013-04-17 15:07:00,
2013-04-17 10:12:00,33.5,31.7,30.09,NE,53,21.0,22.0,93,0.09,,,0.13,Wunderground v.1.15,2013-04-17 15:12:00,
2013-04-17 10:17:00,33.5,31.7,30.08,ENE,60,21.0,23.0,93,0.09,,,0.13,Wunderground v.1.15,2013-04-17 15:17:00,
2013-04-17 10:22:00,33.7,31.9,30.08,NE,47,19.0,22.0,93,0.07,,,0.14,Wunderground v.1.15,2013-04-17 15:22:00,
2013-04-17 10:27:00,33.8,32.0,30.08,NE,51,18.0,24.0,93,0.09,,,0.15,Wunderground v.1.15,2013-04-17 15:27:00,
2013-04-17 10:32:00,34.1,32.3,30.09,ENE,59,18.0,22.0,93,0.09,,,0.15,Wunderground v.1.15,2013-04-17 15:32:00,
2013-04-17 10:38:00,34.2,32.4,30.09,ENE,57,14.0,22.0,93,0.08,,,0.16,Wunderground v.1.15,2013-04-17 15:38:00,
2013-04-17 10:43:00,34.3,32.5,30.09,NE,55,16.0,20.0,93,0.09,,,0.17,Wunderground v.1.15,2013-04-17 15:43:00,
2013-04-17 10:48:00,34.4,32.6,30.10,ENE,62,18.0,20.0,93,0.09,,,0.17,Wunderground v.1.15,2013-04-17 15:48:00,
2013-04-17 10:53:00,34.4,32.3,30.10,ENE,67,16.0,24.0,92,0.08,,,0.18,Wunderground v.1.15,2013-04-17 15:53:00,
2013-04-17 10:58:00,34.4,32.6,30.10,ENE,59,16.0,25.0,93,0.07,,,0.19,Wunderground v.1.15,2013-04-17 15:58:00,
2013-04-17 11:03:00,34.5,32.7,30.10,NE,49,15.0,18.0,93,0.07,,,0.19,Wunderground v.1.15,2013-04-17 16:03:00,
2013-04-17 11:08:00,34.6,32.8,30.10,ENE,57,12.0,22.0,93,0.06,,,0.19,Wunderground v.1.15,2013-04-17 16:08:00,
2013-04-17 11:13:00,34.6,32.8,30.11,NE,39,17.0,17.0,93,0.05,,,0.20,Wunderground v.1.15,2013-04-17 16:13:00,
2013-04-17 11:18:00,34.7,32.9,30.11,NE,53,16.0,22.0,93,0.05,,,0.20,Wunderground v.1.15,2013-04-17 16:18:00,
2013-04-17 11:23:00,34.9,33.1,30.11,NE,51,14.0,18.0,93,0.06,,,0.21,Wunderground v.1.15,2013-04-17 16:23:00,
2013-04-17 11:28:00,35.0,33.2,30.10,NE,49,15.0,20.0,93,0.06,,,0.21,Wunderground v.1.15,2013-04-17 16:28:00,
2013-04-17 11:33:00,35.1,33.3,30.10,NE,49,16.0,20.0,93,0.06,,,0.22,Wunderground v.1.15,2013-04-17 16:33:00,
2013-04-17 11:38:00,35.1,33.3,30.10,ENE,72,16.0,20.0,93,0.06,,,0.22,Wunderground v.1.15,2013-04-17 16:38:00,
2013-04-17 11:43:00,35.2,33.4,30.11,NE,50,18.0,18.0,93,0.05,,,0.23,Wunderground v.1.15,2013-04-17 16:43:00,
2013-04-17 11:48:00,35.2,33.4,30.11,NE,53,13.0,20.0,93,0.05,,,0.23,Wunderground v.1.15,2013-04-17 16:48:00,
2013-04-17 11:53:00,35.3,33.5,30.11,NE,36,11.0,16.0,93,0.05,,,0.23,Wunderground v.1.15,2013-04-17 16:53:00,
2013-04-17 11:58:00,35.3,33.7,30.12,ENE,59,12.0,18.0,94,0.04,,,0.24,Wunderground v.1.15,2013-04-17 16:58:00,
2013-04-17 12:03:00,35.5,33.9,30.11,NE,53,12.0,15.0,94,0.04,,,0.24,Wunderground v.1.15,2013-04-17 17:03:00,
2013-04-17 12:08:00,35.6,34.0,30.10,NE,50,11.0,18.0,94,0.04,,,0.24,Wunderground v.1.15,2013-04-17 17:08:00,
2013-04-17 12:13:00,35.8,34.2,30.09,NE,52,15.0,18.0,94,0.05,,,0.25,Wunderground v.1.15,2013-04-17 17:13:00,
2013-04-17 12:18:00,35.9,34.3,30.07,NE,49,14.0,18.0,94,0.05,,,0.25,Wunderground v.1.15,2013-04-17 17:18:00,
2013-04-17 12:23:00,36.1,34.5,30.06,NE,36,12.0,20.0,94,0.05,,,0.25,Wunderground v.1.15,2013-04-17 17:23:00,
2013-04-17 12:28:00,36.2,34.6,30.05,NE,40,15.0,21.0,94,0.04,,,0.26,Wunderground v.1.15,2013-04-17 17:28:00,
2013-04-17 12:33:00,36.2,34.6,30.05,NE,38,13.0,18.0,94,0.04,,,0.26,Wunderground v.1.15,2013-04-17 17:33:00,
2013-04-17 12:38:00,36.1,34.3,30.05,NNE,28,14.0,20.0,93,0.04,,,0.26,Wunderground v.1.15,2013-04-17 17:38:00,
2013-04-17 12:43:00,36.2,34.6,30.05,NNE,28,14.0,17.0,94,0.00,,,0.26,Wunderground v.1.15,2013-04-17 17:43:00,
2013-04-17 12:48:00,36.3,34.7,30.05,NNE,29,15.0,18.0,94,0.00,,,0.26,Wunderground v.1.15,2013-04-17 17:48:00,
2013-04-17 12:53:00,36.2,34.6,30.04,NNE,33,15.0,17.0,94,0.00,,,0.27,Wunderground v.1.15,2013-04-17 17:53:00,
2013-04-17 12:58:00,36.3,34.7,30.04,NNE,19,18.0,18.0,94,0.00,,,0.27,Wunderground v.1.15,2013-04-17 17:58:00,
2013-04-17 13:03:00,36.3,34.7,30.03,NNE,33,17.0,19.0,94,0.00,,,0.27,Wunderground v.1.15,2013-04-17 18:03:00,
2013-04-17 13:08:00,36.4,34.8,30.03,NE,40,14.0,19.0,94,0.00,,,0.27,Wunderground v.1.15,2013-04-17 18:08:00,
2013-04-17 13:13:00,36.5,34.9,30.04,NNE,14,12.0,17.0,94,0.00,,,0.27,Wunderground v.1.15,2013-04-17 18:13:00,
2013-04-17 13:18:00,36.5,34.7,30.04,NE,50,11.0,18.0,93,0.00,,,0.27,Wunderground v.1.15,2013-04-17 18:18:00,
2013-04-17 13:23:00,36.6,34.8,30.03,NE,42,14.0,18.0,93,0.00,,,0.27,Wunderground v.1.15,2013-04-17 18:23:00,
2013-04-17 13:28:00,36.6,34.8,30.03,NE,42,14.0,21.0,93,0.00,,,0.27,Wunderground v.1.15,2013-04-17 18:28:00,
2013-04-17 13:33:00,36.7,35.1,30.04,NE,47,17.0,24.0,94,0.00,,,0.27,Wunderground v.1.15,2013-04-17 18:33:00,
2013-04-17 13:38:00,36.9,35.1,30.04,NE,53,13.0,24.0,93,0.00,,,0.27,Wunderground v.1.15,2013-04-17 18:38:00,
2013-04-17 13:44:00,36.9,35.1,30.04,NE,44,14.0,20.0,93,0.00,,,0.27,Wunderground v.1.15,2013-04-17 18:44:00,
2013-04-17 13:49:00,36.9,35.1,30.04,ENE,69,16.0,20.0,93,0.00,,,0.27,Wunderground v.1.15,2013-04-17 18:49:00,
2013-04-17 13:54:00,36.8,35.0,30.03,NE,47,15.0,20.0,93,0.00,,,0.27,Wunderground v.1.15,2013-04-17 18:54:00,
2013-04-17 13:59:00,36.9,35.3,30.03,NE,45,18.0,20.0,94,0.00,,,0.27,Wunderground v.1.15,2013-04-17 18:59:00,
2013-04-17 14:04:00,37.0,35.4,30.03,NE,39,15.0,19.0,94,0.00,,,0.27,Wunderground v.1.15,2013-04-17 19:04:00,
2013-04-17 14:09:00,37.1,35.8,30.02,NE,50,17.0,21.0,95,0.00,,,0.27,Wunderground v.1.15,2013-04-17 19:09:00,
2013-04-17 14:14:00,37.2,35.6,30.01,NE,49,17.0,21.0,94,0.00,,,0.27,Wunderground v.1.15,2013-04-17 19:14:00,
2013-04-17 14:19:00,37.3,35.7,30.02,NE,46,16.0,22.0,94,0.00,,,0.27,Wunderground v.1.15,2013-04-17 19:19:00,
2013-04-17 14:24:00,37.2,35.6,30.02,NE,37,14.0,20.0,94,0.00,,,0.27,Wunderground v.1.15,2013-04-17 19:24:00,
2013-04-17 14:29:00,37.2,35.6,30.00,NE,43,15.0,24.0,94,0.00,,,0.27,Wunderground v.1.15,2013-04-17 19:29:00,
2013-04-17 14:34:00,37.2,35.6,30.00,NE,46,15.0,20.0,94,0.00,,,0.27,Wunderground v.1.15,2013-04-17 19:34:00,
2013-04-17 14:39:00,37.1,35.3,30.01,NE,38,16.0,21.0,93,0.00,,,0.27,Wunderground v.1.15,2013-04-17 19:39:00,
2013-04-17 14:44:00,37.1,35.5,30.01,NE,53,12.0,17.0,94,0.00,,,0.27,Wunderground v.1.15,2013-04-17 19:44:00,
2013-04-17 14:49:00,37.1,35.5,30.01,NE,45,14.0,20.0,94,0.00,,,0.27,Wunderground v.1.15,2013-04-17 19:49:00,
2013-04-17 14:54:00,36.9,35.3,30.00,NNE,29,15.0,17.0,94,0.00,,,0.27,Wunderground v.1.15,2013-04-17 19:54:00,
2013-04-17 14:59:00,36.9,35.3,30.00,NNE,24,17.0,21.0,94,0.00,,,0.27,Wunderground v.1.15,2013-04-17 19:59:00,
2013-04-17 15:04:00,36.9,35.3,29.99,NE,41,14.0,18.0,94,0.00,,,0.27,Wunderground v.1.15,2013-04-17 20:04:00,
2013-04-17 15:09:00,36.8,35.2,29.99,NE,39,18.0,18.0,94,0.00,,,0.27,Wunderground v.1.15,2013-04-17 20:09:00,
2013-04-17 15:14:00,36.7,35.1,29.98,NNE,31,13.0,23.0,94,0.00,,,0.27,Wunderground v.1.15,2013-04-17 20:14:00,
2013-04-17 15:19:00,36.8,35.2,29.99,NNE,29,12.0,23.0,94,0.00,,,0.27,Wunderground v.1.15,2013-04-17 20:19:00,
2013-04-17 15:24:00,36.8,35.2,30.00,NE,42,14.0,21.0,94,0.00,,,0.27,Wunderground v.1.15,2013-04-17 20:24:00,
2013-04-17 15:29:00,36.8,35.2,29.97,NE,42,15.0,21.0,94,0.00,,,0.27,Wunderground v.1.15,2013-04-17 20:29:00,
2013-04-17 15:34:00,36.8,35.2,29.99,NE,48,14.0,24.0,94,0.00,,,0.27,Wunderground v.1.15,2013-04-17 20:34:00,
2013-04-17 15:39:00,36.9,35.3,29.99,NE,46,13.0,24.0,94,0.00,,,0.27,Wunderground v.1.15,2013-04-17 20:39:00,
2013-04-17 15:44:00,36.9,35.3,29.98,NE,51,15.0,20.0,94,0.00,,,0.27,Wunderground v.1.15,2013-04-17 20:44:00,
2013-04-17 15:49:00,36.8,35.2,29.98,NE,40,18.0,20.0,94,0.00,,,0.27,Wunderground v.1.15,2013-04-17 20:49:00,
2013-04-17 15:55:00,36.8,35.2,29.98,NE,46,16.0,18.0,94,0.00,,,0.27,Wunderground v.1.15,2013-04-17 20:55:00,
2013-04-17 16:00:00,36.8,35.2,29.98,NE,52,18.0,20.0,94,0.00,,,0.27,Wunderground v.1.15,2013-04-17 21:00:00,
2013-04-17 16:05:00,36.9,35.3,29.98,NE,55,12.0,19.0,94,0.00,,,0.27,Wunderground v.1.15,2013-04-17 21:05:00,
2013-04-17 16:10:00,37.0,35.4,29.98,NE,48,14.0,19.0,94,0.00,,,0.27,Wunderground v.1.15,2013-04-17 21:10:00,
2013-04-17 16:15:00,37.0,35.7,29.97,NE,53,19.0,20.0,95,0.00,,,0.27,Wunderground v.1.15,2013-04-17 21:15:00,
2013-04-17 16:20:00,37.0,35.4,29.96,NE,43,17.0,20.0,94,0.00,,,0.27,Wunderground v.1.15,2013-04-17 21:20:00,
2013-04-17 16:25:00,37.1,35.5,29.96,NE,40,16.0,21.0,94,0.00,,,0.27,Wunderground v.1.15,2013-04-17 21:25:00,
2013-04-17 16:30:00,37.2,35.9,29.95,NE,49,18.0,21.0,95,0.00,,,0.27,Wunderground v.1.15,2013-04-17 21:30:00,
2013-04-17 16:35:00,37.2,35.9,29.94,NE,53,14.0,18.0,95,0.00,,,0.27,Wunderground v.1.15,2013-04-17 21:35:00,
2013-04-17 16:40:00,37.2,35.9,29.94,NE,51,17.0,20.0,95,0.00,,,0.27,Wunderground v.1.15,2013-04-17 21:40:00,
2013-04-17 16:45:00,37.2,35.9,29.94,NE,35,15.0,20.0,95,0.00,,,0.27,Wunderground v.1.15,2013-04-17 21:45:00,
2013-04-17 16:50:00,37.1,35.8,29.93,NE,40,13.0,21.0,95,0.00,,,0.27,Wunderground v.1.15,2013-04-17 21:50:00,
2013-04-17 16:55:00,37.1,35.5,29.93,NE,40,18.0,20.0,94,0.00,,,0.27,Wunderground v.1.15,2013-04-17 21:55:00,
2013-04-17 17:00:00,37.1,35.5,29.93,NE,36,12.0,23.0,94,0.00,,,0.27,Wunderground v.1.15,2013-04-17 22:00:00,
2013-04-17 17:05:00,37.2,35.6,29.93,NE,41,18.0,21.0,94,0.00,,,0.27,Wunderground v.1.15,2013-04-17 22:05:00,
2013-04-17 17:10:00,37.1,35.5,29.93,NE,45,19.0,21.0,94,0.00,,,0.27,Wunderground v.1.15,2013-04-17 22:10:00,
2013-04-17 17:15:00,37.0,35.4,29.93,NE,38,10.0,21.0,94,0.00,,,0.28,Wunderground v.1.15,2013-04-17 22:15:00,
2013-04-17 17:20:00,37.0,35.4,29.93,NE,53,14.0,21.0,94,0.00,,,0.28,Wunderground v.1.15,2013-04-17 22:20:00,
2013-04-17 17:25:00,37.0,35.4,29.92,NE,34,17.0,21.0,94,0.00,,,0.28,Wunderground v.1.15,2013-04-17 22:25:00,
2013-04-17 17:30:00,36.9,35.3,29.92,NE,43,14.0,21.0,94,0.00,,,0.28,Wunderground v.1.15,2013-04-17 22:30:00,
2013-04-17 17:35:00,36.9,35.3,29.92,NE,47,19.0,22.0,94,0.00,,,0.28,Wunderground v.1.15,2013-04-17 22:35:00,
2013-04-17 17:40:00,36.8,35.2,29.91,NE,36,14.0,22.0,94,0.00,,,0.28,Wunderground v.1.15,2013-04-17 22:40:00,
2013-04-17 17:45:00,36.8,35.5,29.92,NE,42,14.0,21.0,95,0.00,,,0.28,Wunderground v.1.15,2013-04-17 22:45:00,
2013-04-17 17:50:00,36.7,35.4,29.91,NE,45,15.0,21.0,95,0.00,,,0.28,Wunderground v.1.15,2013-04-17 22:50:00,
2013-04-17 17:55:00,36.6,35.3,29.92,NE,44,17.0,21.0,95,0.00,,,0.28,Wunderground v.1.15,2013-04-17 22:55:00,
2013-04-17 18:00:00,36.5,35.2,29.92,NE,34,13.0,21.0,95,0.00,,,0.28,Wunderground v.1.15,2013-04-17 23:00:00,
2013-04-17 18:05:00,36.5,34.9,29.90,NE,34,18.0,25.0,94,0.00,,,0.28,Wunderground v.1.15,2013-04-17 23:05:00,
2013-04-17 18:10:00,36.4,35.1,29.92,NE,46,16.0,25.0,95,0.00,,,0.28,Wunderground v.1.15,2013-04-17 23:10:00,
2013-04-17 18:15:00,36.4,35.1,29.92,NNE,32,13.0,20.0,95,0.00,,,0.28,Wunderground v.1.15,2013-04-17 23:15:00,
2013-04-17 18:20:00,36.3,35.0,29.93,NE,37,14.0,20.0,95,0.00,,,0.28,Wunderground v.1.15,2013-04-17 23:20:00,
2013-04-17 18:25:00,36.3,35.0,29.94,NNE,30,13.0,18.0,95,0.00,,,0.28,Wunderground v.1.15,2013-04-17 23:25:00,
2013-04-17 18:30:00,36.3,35.0,29.98,NE,38,13.0,18.0,95,0.00,,,0.28,Wunderground v.1.15,2013-04-17 23:30:00,
2013-04-17 18:35:00,36.4,35.1,30.03,ENE,67,2.0,14.0,95,0.00,,,0.28,Wunderground v.1.15,2013-04-17 23:35:00,
2013-04-17 18:40:00,36.3,35.0,29.94,NNE,28,21.0,21.0,95,0.00,,,0.28,Wunderground v.1.15,2013-04-17 23:40:00,
2013-04-17 18:45:00,36.2,34.9,29.95,NNE,29,14.0,21.0,95,0.00,,,0.28,Wunderground v.1.15,2013-04-17 23:45:00,
2013-04-17 18:50:00,36.1,34.8,29.95,NNE,24,13.0,21.0,95,0.00,,,0.29,Wunderground v.1.15,2013-04-17 23:50:00,
2013-04-17 18:55:00,36.1,34.8,29.96,NE,40,12.0,17.0,95,0.12,,,0.30,Wunderground v.1.15,2013-04-17 23:55:00,
2013-04-17 19:00:00,36.1,34.8,29.94,NE,34,17.0,19.0,95,0.11,,,0.31,Wunderground v.1.15,2013-04-18 00:00:00,
2013-04-17 19:05:00,36.1,34.8,29.96,NNE,30,14.0,17.0,95,0.06,,,0.31,Wunderground v.1.15,2013-04-18 00:05:00,
2013-04-17 19:10:00,36.1,34.8,29.96,NNE,26,18.0,18.0,95,0.04,,,0.31,Wunderground v.1.15,2013-04-18 00:10:00,
2013-04-17 19:15:00,36.1,34.8,29.96,NE,34,16.0,17.0,95,0.04,,,0.32,Wunderground v.1.15,2013-04-18 00:15:00,
2013-04-17 19:20:00,36.1,34.8,29.95,NE,45,11.0,20.0,95,0.11,,,0.33,Wunderground v.1.15,2013-04-18 00:20:00,
2013-04-17 19:25:00,36.0,34.7,29.96,NNE,23,16.0,18.0,95,0.11,,,0.34,Wunderground v.1.15,2013-04-18 00:25:00,
2013-04-17 19:30:00,36.0,34.7,29.95,NNE,17,16.0,18.0,95,0.10,,,0.35,Wunderground v.1.15,2013-04-18 00:30:00,
2013-04-17 19:35:00,35.9,34.6,29.91,NNE,28,19.0,24.0,95,0.12,,,0.36,Wunderground v.1.15,2013-04-18 00:35:00,
2013-04-17 19:40:00,35.6,34.3,29.90,NNE,26,21.0,25.0,95,0.17,,,0.37,Wunderground v.1.15,2013-04-18 00:40:00,
2013-04-17 19:45:00,35.4,34.1,29.89,NNE,13,22.0,25.0,95,0.19,,,0.39,Wunderground v.1.15,2013-04-18 00:45:00,
2013-04-17 19:50:00,35.3,34.0,29.89,NE,49,17.0,25.0,95,0.16,,,0.40,Wunderground v.1.15,2013-04-18 00:50:00,
2013-04-17 19:56:00,35.4,34.1,29.89,NE,37,16.0,23.0,95,0.13,,,0.41,Wunderground v.1.15,2013-04-18 00:56:00,
2013-04-17 20:01:00,35.4,34.1,29.90,NNE,15,20.0,23.0,95,0.10,,,0.42,Wunderground v.1.15,2013-04-18 01:01:00,
2013-04-17 20:06:00,35.3,33.7,29.89,NNE,24,18.0,26.0,94,0.06,,,0.42,Wunderground v.1.15,2013-04-18 01:06:00,
2013-04-17 20:11:00,35.3,34.0,29.91,NNE,16,19.0,19.0,95,0.04,,,0.42,Wunderground v.1.15,2013-04-18 01:11:00,
2013-04-17 20:16:00,35.4,33.8,29.93,NNE,20,13.0,21.0,94,0.00,,,0.42,Wunderground v.1.15,2013-04-18 01:16:00,
2013-04-17 20:21:00,35.4,33.8,29.92,NNE,25,16.0,19.0,94,0.00,,,0.42,Wunderground v.1.15,2013-04-18 01:21:00,
2013-04-17 20:26:00,35.3,33.7,29.92,North,5,19.0,21.0,94,0.00,,,0.42,Wunderground v.1.15,2013-04-18 01:26:00,
2013-04-17 20:31:00,35.3,33.7,29.92,NNE,27,18.0,21.0,94,0.00,,,0.42,Wunderground v.1.15,2013-04-18 01:31:00,
2013-04-17 20:36:00,35.2,33.6,29.91,NNE,13,18.0,21.0,94,0.00,,,0.42,Wunderground v.1.15,2013-04-18 01:36:00,
2013-04-17 20:42:00,35.2,33.6,29.92,NNE,28,19.0,20.0,94,0.00,,,0.42,Wunderground v.1.15,2013-04-18 01:42:00,
2013-04-17 20:47:00,35.2,33.6,29.92,NNE,20,13.0,22.0,94,0.00,,,0.42,Wunderground v.1.15,2013-04-18 01:47:00,
2013-04-17 20:52:00,35.1,33.5,29.91,NNE,26,19.0,20.0,94,0.00,,,0.42,Wunderground v.1.15,2013-04-18 01:52:00,
2013-04-17 20:57:00,35.1,33.5,29.92,NNE,25,17.0,23.0,94,0.00,,,0.42,Wunderground v.1.15,2013-04-18 01:57:00,
2013-04-17 21:02:00,35.1,33.5,29.91,NNE,24,22.0,25.0,94,0.00,,,0.42,Wunderground v.1.15,2013-04-18 02:02:00,
2013-04-17 21:07:00,35.0,33.4,29.91,NNE,32,20.0,25.0,94,0.00,,,0.42,Wunderground v.1.15,2013-04-18 02:07:00,
2013-04-17 21:12:00,35.0,33.4,29.91,NE,39,19.0,23.0,94,0.00,,,0.42,Wunderground v.1.15,2013-04-18 02:12:00,
2013-04-17 21:17:00,35.1,33.5,29.92,NNE,25,15.0,23.0,94,0.00,,,0.42,Wunderground v.1.15,2013-04-18 02:17:00,
2013-04-17 21:22:00,35.1,33.5,29.93,NNE,26,14.0,21.0,94,0.00,,,0.42,Wunderground v.1.15,2013-04-18 02:22:00,
2013-04-17 21:27:00,35.1,33.5,29.93,NNE,22,15.0,21.0,94,0.00,,,0.42,Wunderground v.1.15,2013-04-18 02:27:00,
2013-04-17 21:32:00,35.1,33.5,29.94,NNE,31,15.0,18.0,94,0.00,,,0.42,Wunderground v.1.15,2013-04-18 02:32:00,
2013-04-17 21:37:00,35.1,33.5,29.94,North,11,15.0,18.0,94,0.00,,,0.42,Wunderground v.1.15,2013-04-18 02:37:00,
2013-04-17 21:42:00,35.1,33.5,29.94,NNE,15,20.0,20.0,94,0.00,,,0.42,Wunderground v.1.15,2013-04-18 02:42:00,
2013-04-17 21:47:00,35.1,33.5,29.94,North,5,14.0,22.0,94,0.00,,,0.42,Wunderground v.1.15,2013-04-18 02:47:00,
2013-04-17 21:52:00,35.0,33.4,29.95,North,360,16.0,17.0,94,0.00,,,0.42,Wunderground v.1.15,2013-04-18 02:52:00,
2013-04-17 21:57:00,34.9,33.3,29.94,North,5,15.0,19.0,94,0.00,,,0.42,Wunderground v.1.15,2013-04-18 02:57:00,
2013-04-17 22:02:00,34.8,33.5,29.94,North,5,15.0,18.0,95,0.00,,,0.42,Wunderground v.1.15,2013-04-18 03:02:00,
2013-04-17 22:07:00,34.7,33.4,29.94,NNE,13,19.0,21.0,95,0.00,,,0.42,Wunderground v.1.15,2013-04-18 03:07:00,
2013-04-17 22:12:00,34.6,33.3,29.94,NNE,14,17.0,17.0,95,0.00,,,0.42,Wunderground v.1.15,2013-04-18 03:12:00,
2013-04-17 22:17:00,34.6,33.3,29.94,North,360,18.0,20.0,95,0.00,,,0.42,Wunderground v.1.15,2013-04-18 03:17:00,
2013-04-17 22:22:00,34.5,33.2,29.93,North,355,15.0,17.0,95,0.00,,,0.42,Wunderground v.1.15,2013-04-18 03:22:00,
2013-04-17 22:27:00,34.4,33.1,29.93,North,360,17.0,19.0,95,0.00,,,0.43,Wunderground v.1.15,2013-04-18 03:27:00,
2013-04-17 22:32:00,34.3,33.0,29.93,North,355,16.0,19.0,95,0.00,,,0.43,Wunderground v.1.15,2013-04-18 03:32:00,
2013-04-17 22:37:00,34.1,32.8,29.94,North,360,16.0,19.0,95,0.00,,,0.43,Wunderground v.1.15,2013-04-18 03:37:00,
2013-04-17 22:42:00,34.0,32.7,29.94,North,5,16.0,16.0,95,0.00,,,0.43,Wunderground v.1.15,2013-04-18 03:42:00,
2013-04-17 22:47:00,34.0,32.7,29.93,North,355,13.0,20.0,95,0.00,,,0.43,Wunderground v.1.15,2013-04-18 03:47:00,
2013-04-17 22:52:00,33.9,32.6,29.93,North,355,18.0,21.0,95,0.00,,,0.43,Wunderground v.1.15,2013-04-18 03:52:00,
2013-04-17 22:57:00,33.8,32.5,29.92,North,355,20.0,21.0,95,0.00,,,0.43,Wunderground v.1.15,2013-04-18 03:57:00,
2013-04-17 23:01:00,33.7,32.4,29.92,NNW,342,19.0,21.0,95,0.00,,,0.43,Wunderground v.1.15,2013-04-18 04:01:00,
2013-04-17 23:02:00,33.7,32.4,29.92,North,355,22.0,22.0,95,0.00,,,0.43,Wunderground v.1.15,2013-04-18 04:02:00,
2013-04-17 23:07:00,33.7,32.4,29.92,NNW,348,17.0,25.0,95,0.00,,,0.43,Wunderground v.1.15,2013-04-18 04:07:00,
2013-04-17 23:12:00,33.6,32.3,29.92,North,5,21.0,22.0,95,0.00,,,0.43,Wunderground v.1.15,2013-04-18 04:12:00,
2013-04-17 23:17:00,33.6,32.3,29.91,North,5,18.0,23.0,95,0.00,,,0.43,Wunderground v.1.15,2013-04-18 04:17:00,
2013-04-17 23:22:00,33.5,32.2,29.91,North,360,20.0,21.0,95,0.00,,,0.43,Wunderground v.1.15,2013-04-18 04:22:00,
2013-04-17 23:27:00,33.5,32.2,29.90,North,360,20.0,26.0,95,0.00,,,0.43,Wunderground v.1.15,2013-04-18 04:27:00,
2013-04-17 23:32:00,33.4,32.1,29.89,North,355,20.0,22.0,95,0.00,,,0.43,Wunderground v.1.15,2013-04-18 04:32:00,
2013-04-17 23:37:00,33.4,32.1,29.89,North,5,25.0,26.0,95,0.00,,,0.43,Wunderground v.1.15,2013-04-18 04:37:00,
2013-04-17 23:42:00,33.3,32.0,29.90,North,355,23.0,25.0,95,0.00,,,0.43,Wunderground v.1.15,2013-04-18 04:42:00,
2013-04-17 23:47:00,33.3,32.0,29.90,North,360,26.0,26.0,95,0.00,,,0.43,Wunderground v.1.15,2013-04-18 04:47:00,
2013-04-17 23:52:00,33.2,31.9,29.89,North,5,19.0,24.0,95,0.00,,,0.43,Wunderground v.1.15,2013-04-18 04:52:00,
2013-04-17 23:57:00,33.2,31.9,29.90,North,5,17.0,24.0,95,0.00,,,0.43,Wunderground v.1.15,2013-04-18 04:57:00,